Skip Page Navigation
NASA JPL Caltech
NASA Logo - Jet Propulsion Laboratory + View the NASA Portal
+ Center for Near-Earth Object Studies
JPL Home Earth Solar System Stars & Galaxies Technology
JPL Solar System Dynamics
BODIES ORBITS EPHEMERIDES TOOLS PHYSICAL DATA DISCOVERY FAQ SITE MAP
JPL Small-Body Database Browser
Search: [ help ]  
266113 (2006 SP275)
Classification: Main-belt Asteroid          SPK-ID: 2266113
Ephemeris | Orbit Diagram | Orbital Elements | Mission Design | Physical Parameters | Discovery Circumstances ]

[ show orbit diagram ]
Orbital Elements at Epoch 2459000.5 (2020-May-31.0) TDB
Reference: JPL 11 (heliocentric ecliptic J2000)
 Element Value Uncertainty (1-sigma)   Units 
e .07017398992594974 5.9793e-08  
a 2.323785507523076 2.0412e-08 au
q 2.160716206728084 1.4275e-07 au
i 1.960863431073915 6.8528e-06 deg
node 225.5048934759361 0.00023089 deg
peri 204.6119994898346 0.00024022 deg
M 289.0419575934304 6.6533e-05 deg
tp 2459255.530199163374
(2021-Feb-10.03019916)
0.00024025 TDB
period 1293.875487330445
3.54
1.7048e-05
4.667e-08
d
yr
n .2782338822592278 3.666e-09 deg/d
Q 2.486854808318069 2.1845e-08 au
  Orbit Determination Parameters
   # obs. used (total)      144  
   data-arc span      5078 days (13.90 yr)  
   first obs. used      2004-02-29  
   last obs. used      2018-01-24  
   planetary ephem.      DE431  
   SB-pert. ephem.      SB431-N16  
   condition code      0  
   norm. resid. RMS      .59862  
   source      ORB  
   producer      Otto Matic  
   solution date      2018-Feb-06 08:44:45  

Additional Information
 Earth MOID = 1.17507 au 
 Jupiter MOID = 2.67821 au 
 T_jup = 3.572 
[ show covariance matrix ]

Ephemeris | Orbit Diagram | Orbital Elements | Mission Design | Physical Parameters | Discovery Circumstances ]

Physical Parameter Table
Parameter Symbol Value Units Sigma Reference Notes
absolute magnitude H 17.5   n/a MPO437226  

266113 (2006 SP275)          Discovered 2006-Sep-27 by Mt. Lemmon Survey at Mount Lemmon
Reference: 20110218/Numbers.arcLast Updated: 2011-02-22
Ephemeris | Orbit Diagram | Orbital Elements | Mission Design | Physical Parameters | Discovery Circumstances ]
ABOUT SSD CREDITS/AWARDS PRIVACY/COPYRIGHT GLOSSARY LINKS
FirstGov 2020-Sep-19 04:31 UT
(server date/time)  
NASA Home Page
Site Manager:   Ryan S. Park
Webmaster  Alan B. Chamberlin